| time (UTC) | temp F | wind direction | speed knots | gust knots | rain 1hr in | rain 24hr in | rain mn in | humidity % | barometer mb |
| 20260508094105 | 40 | 9 | 2.6 | 4.3 | 0.00 | 0.00 | 0.00 | 66 | 1018.0 |
| 20260508093605 | 41 | 9 | 1.7 | 4.3 | 0.00 | 0.00 | 0.00 | 66 | 1018.0 |
| 20260508093104 | 41 | 9 | 1.7 | 4.3 | 0.00 | 0.00 | 0.00 | 64 | 1018.0 |
| 20260508090604 | 41 | 9 | 1.7 | 2.6 | 0.00 | 0.00 | 0.00 | 66 | 1018.0 |
| 20260508090105 | 41 | 9 | 2.6 | 4.3 | 0.00 | 0.00 | 0.00 | 65 | 1017.9 |
| 20260508083605 | 40 | 9 | 0.9 | 1.7 | 0.00 | 0.00 | 0.00 | 65 | 1018.1 |
| 20260508083105 | 41 | 9 | 0.9 | 2.6 | 0.00 | 0.00 | 0.00 | 65 | 1018.1 |
| 20260508080605 | 41 | 9 | 1.7 | 2.6 | 0.00 | 0.00 | 0.00 | 65 | 1018.1 |
| 20260508080105 | 41 | 9 | 0.9 | 8.7 | 0.00 | 0.00 | 0.00 | 66 | 1018.2 |
| 20260508074604 | 42 | 10 | 2.6 | 5.2 | 0.00 | 0.00 | 0.00 | 65 | 1018.3 |
| 20260508073605 | 41 | 9 | 1.7 | 2.6 | 0.00 | 0.00 | 0.00 | 65 | 1018.3 |
| 20260508073104 | 42 | 9 | 2.6 | 4.3 | 0.00 | 0.00 | 0.00 | 63 | 1018.4 |
| 20260508071105 | 42 | 9 | 1.7 | 2.6 | 0.00 | 0.00 | 0.00 | 63 | 1018.5 |
| 20260508070105 | 42 | 11 | 0.9 | 2.6 | 0.00 | 0.00 | 0.00 | 61 | 1018.5 |
| 20260508064105 | 43 | 9 | 0.9 | 1.7 | 0.00 | 0.00 | 0.00 | 60 | 1018.5 |
| 20260508063604 | 43 | 9 | 0.9 | 2.6 | 0.00 | 0.00 | 0.00 | 62 | 1018.5 |
| 20260508063104 | 43 | 9 | 1.7 | 4.3 | 0.00 | 0.00 | 0.00 | 61 | 1018.5 |
| 20260508061604 | 43 | 9 | 1.7 | 2.6 | 0.00 | 0.00 | 0.00 | 62 | 1018.6 |
| 20260508061107 | 43 | 10 | 0.9 | 2.6 | 0.00 | 0.00 | 0.00 | 61 | 1018.6 |
| 20260508060104 | 44 | 9 | 1.7 | 4.3 | 0.00 | 0.00 | 0.00 | 60 | 1018.6 |
| 20260508054604 | 45 | 10 | 0.9 | 4.3 | 0.00 | 0.00 | 0.00 | 57 | 1018.6 |
| 20260508054104 | 46 | 9 | 0.9 | 2.6 | 0.00 | 0.00 | 0.00 | 57 | 1018.6 |
| 20260508053605 | 45 | 9 | 1.7 | 2.6 | 0.00 | 0.00 | 0.00 | 56 | 1018.6 |
| 20260508053105 | 45 | 9 | 2.6 | 6.1 | 0.00 | 0.00 | 0.00 | 56 | 1018.5 |
| 20260508051604 | 45 | 9 | 0.9 | 2.6 | 0.00 | 0.00 | 0.00 | 57 | 1018.6 |
| 20260508051104 | 46 | 9 | 0.9 | 2.6 | 0.00 | 0.00 | 0.00 | 57 | 1018.5 |
| 20260508050105 | 46 | 9 | 2.6 | 5.2 | 0.00 | 0.00 | 0.00 | 56 | 1018.6 |
| 20260508044604 | 46 | 9 | 3.5 | 5.2 | 0.00 | 0.00 | 0.00 | 54 | 1018.7 |
| 20260508044104 | 46 | 9 | 0.9 | 4.3 | 0.00 | 0.00 | 0.00 | 56 | 1018.6 |
| 20260508043604 | 47 | 9 | 0.9 | 2.6 | 0.00 | 0.00 | 0.00 | 54 | 1018.5 |
| 20260508043104 | 47 | 9 | 0.0 | 0.9 | 0.00 | 0.00 | 0.00 | 54 | 1018.6 |
| 20260508041605 | 47 | 9 | 0.9 | 1.7 | 0.00 | 0.00 | 0.00 | 52 | 1018.6 |
| 20260508041104 | 48 | 9 | 0.9 | 1.7 | 0.00 | 0.00 | 0.00 | 52 | 1018.6 |
| 20260508040604 | 48 | 9 | 0.9 | 1.7 | 0.00 | 0.00 | 0.00 | 51 | 1018.6 |
| 20260508040104 | 48 | 9 | 0.9 | 2.6 | 0.00 | 0.00 | 0.00 | 51 | 1018.6 |
| 20260508034604 | 50 | 9 | 2.6 | 2.6 | 0.00 | 0.00 | 0.00 | 48 | 1018.6 |
| 20260508033605 | 51 | 15 | 0.0 | 2.6 | 0.00 | 0.00 | 0.00 | 46 | 1018.4 |
| 20260508033104 | 50 | 15 | 0.9 | 2.6 | 0.00 | 0.00 | 0.00 | 45 | 1018.3 |
| 20260508031604 | 50 | 2 | 1.7 | 2.6 | 0.00 | 0.00 | 0.00 | 47 | 1018.3 |
| 20260508031104 | 51 | 7 | 2.6 | 2.6 | 0.00 | 0.00 | 0.00 | 48 | 1018.2 |
| 20260508030604 | 52 | 7 | 2.6 | 2.6 | 0.00 | 0.00 | 0.00 | 45 | 1018.2 |
| 20260508030105 | 52 | 5 | 1.7 | 2.6 | 0.00 | 0.00 | 0.00 | 45 | 1018.2 |
| 20260508024604 | 54 | 15 | 0.9 | 2.6 | 0.00 | 0.00 | 0.00 | 41 | 1017.9 |
| 20260508024104 | 54 | 15 | 0.9 | 2.6 | 0.00 | 0.00 | 0.00 | 40 | 1017.9 |
| 20260508023604 | 54 | 13 | 1.7 | 4.3 | 0.00 | 0.00 | 0.00 | 40 | 1017.8 |
| 20260508023104 | 55 | 12 | 1.7 | 5.2 | 0.00 | 0.00 | 0.00 | 40 | 1017.8 |
| 20260508021604 | 55 | 15 | 0.9 | 2.6 | 0.00 | 0.00 | 0.00 | 39 | 1018.0 |
| 20260508021104 | 55 | 15 | 1.7 | 4.3 | 0.00 | 0.00 | 0.00 | 40 | 1018.1 |
| 20260508020604 | 55 | 14 | 1.7 | 4.3 | 0.00 | 0.00 | 0.00 | 40 | 1018.1 |
| 20260508020104 | 56 | 15 | 0.9 | 5.2 | 0.00 | 0.00 | 0.00 | 40 | 1018.1 |
| 20260508014604 | 56 | 12 | 0.9 | 2.6 | 0.00 | 0.00 | 0.00 | 39 | 1017.8 |
| 20260508013604 | 57 | 15 | 0.9 | 5.2 | 0.00 | 0.00 | 0.00 | 39 | 1017.9 |
| 20260508013104 | 57 | 14 | 1.7 | 10.4 | 0.00 | 0.00 | 0.00 | 38 | 1017.9 |
| 20260508011604 | 57 | 15 | 2.6 | 5.2 | 0.00 | 0.00 | 0.00 | 37 | 1017.8 |
| 20260508011104 | 58 | 13 | 0.9 | 2.6 | 0.00 | 0.00 | 0.00 | 39 | 1017.8 |
| 20260508010105 | 58 | 14 | 0.9 | 2.6 | 0.00 | 0.00 | 0.00 | 38 | 1018.1 |
| 20260508004604 | 58 | 15 | 1.7 | 4.3 | 0.00 | 0.00 | 0.00 | 38 | 1018.3 |
| 20260508004104 | 58 | 14 | 2.6 | 5.2 | 0.00 | 0.00 | 0.00 | 37 | 1018.3 |
| 20260508003604 | 57 | 14 | 2.6 | 7.8 | 0.00 | 0.00 | 0.00 | 39 | 1018.4 |
| 20260508001604 | 57 | 14 | 0.9 | 5.2 | 0.00 | 0.00 | 0.00 | 39 | 1018.7 |
| 20260508000604 | 57 | 14 | 1.7 | 6.1 | 0.00 | 0.00 | 0.00 | 38 | 1018.7 |
| 20260508000104 | 57 | 14 | 4.3 | 11.3 | 0.00 | 0.00 | 0.00 | 38 | 1018.7 |
| 20260507234604 | 58 | 11 | 2.6 | 6.1 | 0.00 | 0.00 | 0.00 | 39 | 1018.7 |
| 20260507234104 | 58 | 14 | 3.5 | 10.4 | 0.00 | 0.00 | 0.00 | 37 | 1018.7 |
| 20260507233604 | 58 | 14 | 4.3 | 12.2 | 0.00 | 0.00 | 0.00 | 37 | 1018.7 |
| 20260507233103 | 59 | 14 | 2.6 | 10.4 | 0.00 | 0.00 | 0.00 | 38 | 1018.8 |
| 20260507231604 | 59 | 14 | 3.5 | 8.7 | 0.00 | 0.00 | 0.00 | 36 | 1019.0 |
| 20260507231103 | 60 | 14 | 4.3 | 10.4 | 0.00 | 0.00 | 0.00 | 34 | 1018.9 |
| 20260507230604 | 60 | 13 | 5.2 | 11.3 | 0.00 | 0.00 | 0.00 | 34 | 1019.1 |
| 20260507230104 | 60 | 15 | 1.7 | 15.6 | 0.00 | 0.00 | 0.00 | 34 | 1019.1 |
| 20260507224604 | 62 | 14 | 4.3 | 12.2 | 0.00 | 0.00 | 0.00 | 31 | 1019.2 |
| 20260507224104 | 62 | 12 | 6.1 | 18.2 | 0.00 | 0.00 | 0.00 | 31 | 1019.0 |
| 20260507223604 | 61 | 13 | 5.2 | 14.8 | 0.00 | 0.00 | 0.00 | 32 | 1019.2 |
| 20260507221604 | 62 | 13 | 6.1 | 14.8 | 0.00 | 0.00 | 0.00 | 32 | 1019.3 |
| 20260507221104 | 62 | 11 | 5.2 | 13.9 | 0.00 | 0.00 | 0.00 | 34 | 1019.3 |
| 20260507220604 | 61 | 12 | 4.3 | 12.2 | 0.00 | 0.00 | 0.00 | 33 | 1019.2 |
| 20260507220104 | 61 | 14 | 5.2 | 12.2 | 0.00 | 0.00 | 0.00 | 33 | 1019.2 |
| 20260507214604 | 60 | 14 | 6.1 | 11.3 | 0.00 | 0.00 | 0.00 | 35 | 1019.6 |
| 20260507214104 | 60 | 13 | 4.3 | 10.4 | 0.00 | 0.00 | 0.00 | 34 | 1019.6 |
| 20260507213604 | 61 | 13 | 3.5 | 12.2 | 0.00 | 0.00 | 0.00 | 33 | 1019.7 |
| 20260507213105 | 61 | 14 | 6.1 | 13.0 | 0.00 | 0.00 | 0.00 | 33 | 1019.8 |
| 20260507211605 | 63 | 13 | 4.3 | 12.2 | 0.00 | 0.00 | 0.00 | 34 | 1020.0 |
| 20260507211105 | 63 | 13 | 4.3 | 10.4 | 0.00 | 0.00 | 0.00 | 34 | 1020.1 |
| 20260507210605 | 63 | 11 | 3.5 | 15.6 | 0.00 | 0.00 | 0.00 | 34 | 1020.3 |
| 20260507210105 | 62 | 13 | 4.3 | 13.9 | 0.00 | 0.00 | 0.00 | 36 | 1020.3 |
| 20260507203605 | 61 | 13 | 5.2 | 13.9 | 0.00 | 0.00 | 0.00 | 34 | 1020.7 |
| 20260507203104 | 60 | 12 | 4.3 | 13.9 | 0.00 | 0.00 | 0.00 | 38 | 1020.5 |
| 20260507201605 | 61 | 13 | 4.3 | 10.4 | 0.00 | 0.00 | 0.00 | 34 | 1020.5 |
| 20260507201105 | 62 | 13 | 2.6 | 11.3 | 0.00 | 0.00 | 0.00 | 33 | 1020.5 |
| 20260507200605 | 62 | 12 | 2.6 | 11.3 | 0.00 | 0.00 | 0.00 | 34 | 1020.3 |
| 20260507200105 | 62 | 12 | 7.0 | 15.6 | 0.00 | 0.00 | 0.00 | 32 | 1020.4 |
| 20260507194604 | 63 | 13 | 4.3 | 12.2 | 0.00 | 0.00 | 0.00 | 33 | 1020.8 |
| 20260507194105 | 64 | 12 | 5.2 | 13.0 | 0.00 | 0.00 | 0.00 | 31 | 1020.8 |
| 20260507193104 | 64 | 13 | 4.3 | 14.8 | 0.00 | 0.00 | 0.00 | 32 | 1020.7 |
| 20260507190605 | 63 | 12 | 4.3 | 12.2 | 0.00 | 0.00 | 0.00 | 32 | 1021.1 |
| 20260507190105 | 63 | 10 | 2.6 | 13.0 | 0.00 | 0.00 | 0.00 | 33 | 1021.3 |
| 20260507184605 | 63 | 12 | 4.3 | 12.2 | 0.00 | 0.00 | 0.00 | 32 | 1021.4 |
| 20260507184105 | 63 | 13 | 4.3 | 13.9 | 0.00 | 0.00 | 0.00 | 33 | 1021.5 |
| 20260507183605 | 63 | 12 | 4.3 | 11.3 | 0.00 | 0.00 | 0.00 | 33 | 1021.4 |
| 20260507183105 | 63 | 13 | 6.1 | 14.8 | 0.00 | 0.00 | 0.00 | 33 | 1021.6 |
| 20260507181605 | 62 | 12 | 4.3 | 10.4 | 0.00 | 0.00 | 0.00 | 34 | 1021.9 |
| 20260507181105 | 62 | 13 | 3.5 | 10.4 | 0.00 | 0.00 | 0.00 | 34 | 1022.1 |
| 20260507180605 | 62 | 13 | 4.3 | 12.2 | 0.00 | 0.00 | 0.00 | 34 | 1022.3 |
| 20260507174604 | 61 | 14 | 4.3 | 14.8 | 0.00 | 0.00 | 0.00 | 34 | 1022.5 |
| 20260507174105 | 60 | 13 | 3.5 | 10.4 | 0.00 | 0.00 | 0.00 | 36 | 1022.6 |
| 20260507173604 | 60 | 12 | 6.1 | 10.4 | 0.00 | 0.00 | 0.00 | 35 | 1022.6 |
| 20260507171605 | 56 | 14 | 4.3 | 8.7 | 0.00 | 0.00 | 0.00 | 38 | 1023.2 |
| 20260507171105 | 55 | 12 | 4.3 | 7.0 | 0.00 | 0.00 | 0.00 | 39 | 1023.4 |
| 20260507170605 | 54 | 14 | 3.5 | 8.7 | 0.00 | 0.00 | 0.00 | 41 | 1023.5 |
| 20260507170105 | 53 | 12 | 1.7 | 5.2 | 0.00 | 0.00 | 0.00 | 42 | 1023.6 |
| 20260507164605 | 52 | 15 | 1.7 | 2.6 | 0.00 | 0.00 | 0.00 | 42 | 1023.8 |
| 20260507164105 | 52 | 14 | 0.9 | 2.6 | 0.00 | 0.00 | 0.00 | 40 | 1024.0 |
| 20260507163105 | 52 | 14 | 1.7 | 6.1 | 0.00 | 0.00 | 0.00 | 41 | 1024.1 |
| 20260507161605 | 51 | 13 | 1.7 | 2.6 | 0.00 | 0.00 | 0.00 | 46 | 1024.2 |
| 20260507161105 | 50 | 13 | 2.6 | 5.2 | 0.00 | 0.00 | 0.00 | 44 | 1024.3 |
| 20260507160605 | 50 | 12 | 2.6 | 7.0 | 0.00 | 0.00 | 0.00 | 45 | 1024.5 |
| 20260507160105 | 50 | 13 | 2.6 | 4.3 | 0.00 | 0.00 | 0.00 | 45 | 1024.6 |
| 20260507154604 | 48 | 11 | 1.7 | 2.6 | 0.00 | 0.00 | 0.00 | 54 | 1024.7 |
| 20260507154104 | 47 | 12 | 0.9 | 1.7 | 0.00 | 0.00 | 0.00 | 56 | 1024.7 |
| 20260507153605 | 47 | 13 | 0.9 | 2.6 | 0.00 | 0.00 | 0.00 | 56 | 1024.9 |
| 20260507151604 | 46 | 9 | 0.9 | 2.6 | 0.00 | 0.00 | 0.00 | 56 | 1025.0 |
| 20260507151105 | 45 | 9 | 1.7 | 2.6 | 0.00 | 0.00 | 0.00 | 60 | 1025.0 |
| 20260507144605 | 43 | 12 | 0.0 | 1.7 | 0.00 | 0.00 | 0.00 | 62 | 1024.8 |
| 20260507144105 | 42 | 12 | 0.9 | 1.7 | 0.00 | 0.00 | 0.00 | 66 | 1024.8 |
| 20260507143605 | 42 | 13 | 0.9 | 1.7 | 0.00 | 0.00 | 0.00 | 66 | 1024.9 |
| 20260507143105 | 41 | 12 | 0.0 | 2.6 | 0.00 | 0.00 | 0.00 | 66 | 1024.9 |
| 20260507141604 | 41 | 13 | 1.7 | 4.3 | 0.00 | 0.00 | 0.00 | 66 | 1025.1 |
| 20260507140604 | 40 | 13 | 0.0 | 0.9 | 0.00 | 0.00 | 0.00 | 66 | 1025.1 |
| 20260507140105 | 40 | 13 | 0.9 | 2.6 | 0.00 | 0.00 | 0.00 | 65 | 1025.2 |
| 20260507134605 | 39 | 13 | 0.0 | 0.0 | 0.00 | 0.00 | 0.00 | 68 | 1025.3 |
| 20260507134105 | 38 | 13 | 0.9 | 1.7 | 0.00 | 0.00 | 0.00 | 68 | 1025.4 |
| 20260507133605 | 38 | 9 | 0.0 | 1.7 | 0.00 | 0.00 | 0.00 | 71 | 1025.4 |
| 20260507133105 | 38 | 9 | 0.9 | 2.6 | 0.00 | 0.00 | 0.00 | 68 | 1025.4 |
| 20260507131604 | 38 | 11 | 0.9 | 2.6 | 0.00 | 0.00 | 0.00 | 66 | 1025.5 |
| 20260507130605 | 38 | 9 | 1.7 | 5.2 | 0.00 | 0.00 | 0.00 | 66 | 1025.5 |
| 20260507130104 | 38 | 10 | 1.7 | 5.2 | 0.00 | 0.00 | 0.00 | 65 | 1025.4 |
| 20260507124105 | 36 | 9 | 0.9 | 2.6 | 0.00 | 0.00 | 0.00 | 70 | 1025.3 |
| 20260507123605 | 35 | 7 | 0.9 | 2.6 | 0.00 | 0.00 | 0.00 | 71 | 1025.4 |
| 20260507123105 | 35 | 9 | 0.0 | 2.6 | 0.00 | 0.00 | 0.00 | 71 | 1025.5 |
| 20260507121104 | 36 | 13 | 0.0 | 0.0 | 0.00 | 0.00 | 0.00 | 66 | 1025.6 |
| 20260507120105 | 37 | 10 | 2.6 | 12.2 | 0.00 | 0.00 | 0.00 | 63 | 1025.8 |
| 20260507114605 | 38 | 9 | 7.0 | 11.3 | 0.00 | 0.00 | 0.00 | 61 | 1025.6 |
| 20260507114105 | 38 | 10 | 5.2 | 10.4 | 0.00 | 0.00 | 0.00 | 60 | 1025.7 |
| 20260507113105 | 37 | 9 | 8.7 | 13.9 | 0.00 | 0.00 | 0.00 | 61 | 1025.7 |
| 20260507111604 | 37 | 9 | 8.7 | 13.9 | 0.00 | 0.00 | 0.00 | 63 | 1025.7 |
| 20260507111104 | 36 | 10 | 7.0 | 11.3 | 0.00 | 0.00 | 0.00 | 64 | 1025.8 |
| 20260507110604 | 36 | 10 | 9.6 | 14.8 | 0.00 | 0.00 | 0.00 | 63 | 1025.8 |
| 20260507104605 | 37 | 10 | 8.7 | 13.0 | 0.00 | 0.00 | 0.00 | 62 | 1026.1 |
| 20260507104104 | 37 | 11 | 10.4 | 13.0 | 0.00 | 0.00 | 0.00 | 61 | 1026.2 |
| 20260507103605 | 37 | 10 | 8.7 | 12.2 | 0.00 | 0.00 | 0.00 | 63 | 1026.2 |
| 20260507101605 | 36 | 9 | 3.5 | 6.1 | 0.00 | 0.00 | 0.00 | 63 | 1026.3 |
| 20260507101105 | 35 | 9 | 2.6 | 5.2 | 0.00 | 0.00 | 0.00 | 65 | 1026.5 |
| 20260507100605 | 34 | 9 | 2.6 | 7.0 | 0.00 | 0.00 | 0.00 | 67 | 1026.5 |
| 20260507100105 | 34 | 9 | 2.6 | 10.4 | 0.00 | 0.00 | 0.00 | 69 | 1026.5 |